Time,TemperatureF,DewpointF,PressureIn,WindDirection,WindDirectionDegrees,WindSpeedMPH,WindSpeedGustMPH,Humidity,HourlyPrecipIn,Conditions,Clouds,dailyrainin,SoftwareType,DateUTC
2013-05-14 00:02:00,62.0,48.0,29.97,SE,144,3.0,3.0,60,0.00,,,0.00,Wunderground v.1.15,2013-05-13 11:02:00,
2013-05-14 00:12:00,61.7,48.1,29.97,ESE,102,3.0,5.0,61,0.00,,,0.00,Wunderground v.1.15,2013-05-13 11:12:00,
2013-05-14 00:16:00,61.6,48.0,29.97,SE,125,4.0,4.0,61,0.00,,,0.00,Wunderground v.1.15,2013-05-13 11:16:00,
2013-05-14 00:27:00,61.3,47.7,29.97,ESE,112,2.0,5.0,61,0.00,,,0.00,Wunderground v.1.15,2013-05-13 11:27:00,
2013-05-14 00:32:00,61.3,48.2,29.96,ESE,117,2.0,5.0,62,0.00,,,0.00,Wunderground v.1.15,2013-05-13 11:32:00,
2013-05-14 00:41:00,61.1,48.0,29.97,East,91,3.0,3.0,62,0.00,,,0.00,Wunderground v.1.15,2013-05-13 11:41:00,
2013-05-14 00:46:00,61.0,47.9,29.97,East,95,2.0,2.0,62,0.00,,,0.00,Wunderground v.1.15,2013-05-13 11:46:00,
2013-05-14 00:57:00,60.8,47.3,29.97,SE,125,2.0,5.0,61,0.00,,,0.00,Wunderground v.1.15,2013-05-13 11:57:00,
2013-05-14 01:02:00,60.8,47.7,29.97,ESE,112,2.0,5.0,62,0.00,,,0.00,Wunderground v.1.15,2013-05-13 12:02:00,
2013-05-14 01:12:00,60.5,47.4,29.97,SE,139,3.0,4.0,62,0.00,,,0.00,Wunderground v.1.15,2013-05-13 12:12:00,
2013-05-14 01:21:00,60.2,47.6,29.97,SE,127,2.0,2.0,63,0.00,,,0.00,Wunderground v.1.15,2013-05-13 12:21:00,
2013-05-14 01:31:00,59.9,47.7,29.97,ESE,113,2.0,4.0,64,0.00,,,0.00,Wunderground v.1.15,2013-05-13 12:31:00,
2013-05-14 01:37:00,59.8,48.0,29.98,SE,124,3.0,4.0,65,0.00,,,0.00,Wunderground v.1.15,2013-05-13 12:37:00,
2013-05-14 01:46:00,59.5,47.7,29.98,SSE,158,2.0,2.0,65,0.00,,,0.00,Wunderground v.1.15,2013-05-13 12:46:00,
2013-05-14 01:52:00,59.5,47.7,29.98,SE,131,1.0,2.0,65,0.00,,,0.00,Wunderground v.1.15,2013-05-13 12:52:00,
2013-05-14 02:02:00,59.2,47.8,29.99,ESE,122,2.0,2.0,66,0.00,,,0.00,Wunderground v.1.15,2013-05-13 13:02:00,
2013-05-14 02:11:00,59.1,47.7,29.99,SE,138,1.0,3.0,66,0.00,,,0.00,Wunderground v.1.15,2013-05-13 13:11:00,
2013-05-14 02:16:00,59.0,48.1,29.99,SE,132,1.0,1.0,67,0.00,,,0.00,Wunderground v.1.15,2013-05-13 13:16:00,
2013-05-14 02:22:00,59.1,47.7,29.99,SE,132,2.0,2.0,66,0.00,,,0.00,Wunderground v.1.15,2013-05-13 13:22:00,
2013-05-14 02:32:00,59.6,48.2,29.99,East,83,2.0,2.0,66,0.00,,,0.00,Wunderground v.1.15,2013-05-13 13:32:00,
2013-05-14 02:41:00,60.4,48.6,29.99,ESE,119,2.0,3.0,65,0.00,,,0.00,Wunderground v.1.15,2013-05-13 13:41:00,
2013-05-14 02:46:00,60.5,48.3,30.00,SE,144,2.0,3.0,64,0.00,,,0.00,Wunderground v.1.15,2013-05-13 13:46:00,
2013-05-14 02:52:00,60.6,48.4,30.00,SSE,153,3.0,4.0,64,0.00,,,0.00,Wunderground v.1.15,2013-05-13 13:52:00,
2013-05-14 03:02:00,61.4,48.7,30.00,SSE,155,4.0,6.0,63,0.00,,,0.00,Wunderground v.1.15,2013-05-13 14:02:00,
2013-05-14 03:11:00,62.1,48.9,30.00,SE,125,4.0,6.0,62,0.00,,,0.00,Wunderground v.1.15,2013-05-13 14:11:00,
2013-05-14 03:16:00,62.4,48.8,30.00,SE,130,3.0,6.0,61,0.00,,,0.00,Wunderground v.1.15,2013-05-13 14:16:00,
2013-05-14 03:22:00,62.6,49.0,30.00,SE,134,4.0,6.0,61,0.00,,,0.00,Wunderground v.1.15,2013-05-13 14:22:00,
2013-05-14 03:32:00,63.4,49.3,30.00,ESE,103,3.0,4.0,60,0.00,,,0.00,Wunderground v.1.15,2013-05-13 14:32:00,
2013-05-14 03:41:00,64.0,49.4,30.00,SE,141,4.0,5.0,59,0.00,,,0.00,Wunderground v.1.15,2013-05-13 14:41:00,
2013-05-14 03:46:00,64.3,49.7,30.00,SSE,151,4.0,4.0,59,0.00,,,0.00,Wunderground v.1.15,2013-05-13 14:46:00,
2013-05-14 03:52:00,64.7,49.6,30.00,SSE,158,4.0,4.0,58,0.00,,,0.00,Wunderground v.1.15,2013-05-13 14:52:00,
2013-05-14 04:02:00,65.6,49.5,30.00,ENE,72,3.0,5.0,56,0.00,,,0.00,Wunderground v.1.15,2013-05-13 15:02:00,
2013-05-14 04:11:00,66.2,49.6,30.01,SSW,204,4.0,4.0,55,0.00,,,0.00,Wunderground v.1.15,2013-05-13 15:11:00,
2013-05-14 04:16:00,66.8,49.6,30.01,South,179,3.0,3.0,54,0.00,,,0.00,Wunderground v.1.15,2013-05-13 15:16:00,
2013-05-14 04:27:00,67.4,49.7,30.00,South,191,3.0,3.0,53,0.00,,,0.00,Wunderground v.1.15,2013-05-13 15:27:00,
2013-05-14 04:37:00,68.0,49.7,30.01,SSW,197,4.0,4.0,52,0.00,,,0.00,Wunderground v.1.15,2013-05-13 15:37:00,
2013-05-14 04:41:00,68.2,49.4,30.01,ESE,108,4.0,4.0,51,0.00,,,0.00,Wunderground v.1.15,2013-05-13 15:41:00,
2013-05-14 04:47:00,68.8,49.4,30.01,SSE,155,4.0,6.0,50,0.00,,,0.00,Wunderground v.1.15,2013-05-13 15:47:00,
2013-05-14 04:56:00,69.2,49.2,30.02,SSE,150,4.0,6.0,49,0.00,,,0.00,Wunderground v.1.15,2013-05-13 15:56:00,
2013-05-14 05:02:00,69.5,50.0,30.02,SSE,158,4.0,6.0,50,0.00,,,0.00,Wunderground v.1.15,2013-05-13 16:02:00,
2013-05-14 05:11:00,70.2,49.6,30.02,ESE,123,4.0,4.0,48,0.00,,,0.00,Wunderground v.1.15,2013-05-13 16:11:00,
2013-05-14 05:16:00,70.4,49.8,30.02,South,188,4.0,8.0,48,0.00,,,0.00,Wunderground v.1.15,2013-05-13 16:16:00,
2013-05-14 05:22:00,70.7,50.6,30.02,South,177,4.0,8.0,49,0.00,,,0.00,Wunderground v.1.15,2013-05-13 16:22:00,
2013-05-14 05:31:00,71.1,50.4,30.02,SSW,204,4.0,4.0,48,0.00,,,0.00,Wunderground v.1.15,2013-05-13 16:31:00,
2013-05-14 05:37:00,71.5,50.8,30.02,SSE,162,3.0,3.0,48,0.00,,,0.00,Wunderground v.1.15,2013-05-13 16:37:00,
2013-05-14 05:46:00,72.2,50.3,30.03,SE,131,3.0,5.0,46,0.00,,,0.00,Wunderground v.1.15,2013-05-13 16:46:00,
2013-05-14 05:57:00,73.0,50.4,30.03,SSW,210,3.0,5.0,45,0.00,,,0.00,Wunderground v.1.15,2013-05-13 16:57:00,
2013-05-14 06:02:00,73.3,50.1,30.03,South,183,4.0,5.0,44,0.00,,,0.00,Wunderground v.1.15,2013-05-13 17:02:00,
2013-05-14 06:11:00,73.6,50.9,30.02,East,84,4.0,4.0,45,0.00,,,0.00,Wunderground v.1.15,2013-05-13 17:11:00,
2013-05-14 06:17:00,74.0,51.3,30.02,East,80,3.0,6.0,45,0.00,,,0.00,Wunderground v.1.15,2013-05-13 17:17:00,
2013-05-14 06:26:00,74.8,51.4,30.02,East,91,4.0,4.0,44,0.00,,,0.00,Wunderground v.1.15,2013-05-13 17:26:00,
2013-05-14 06:31:00,74.9,51.5,30.02,SSE,155,4.0,4.0,44,0.00,,,0.00,Wunderground v.1.15,2013-05-13 17:31:00,
2013-05-14 06:41:00,75.7,51.6,30.01,East,101,4.0,5.0,43,0.00,,,0.00,Wunderground v.1.15,2013-05-13 17:41:00,
2013-05-14 06:46:00,76.3,52.2,30.02,SE,125,4.0,4.0,43,0.00,,,0.00,Wunderground v.1.15,2013-05-13 17:46:00,
2013-05-14 06:52:00,76.9,52.1,30.02,ENE,70,4.0,4.0,42,0.00,,,0.00,Wunderground v.1.15,2013-05-13 17:52:00,
2013-05-14 07:02:00,76.9,52.1,30.02,SE,136,4.0,6.0,42,0.00,,,0.00,Wunderground v.1.15,2013-05-13 18:02:00,
2013-05-14 07:11:00,77.6,52.7,30.02,SSE,155,4.0,5.0,42,0.00,,,0.00,Wunderground v.1.15,2013-05-13 18:11:00,
2013-05-14 07:17:00,78.1,53.1,30.02,SE,124,4.0,4.0,42,0.00,,,0.00,Wunderground v.1.15,2013-05-13 18:17:00,
2013-05-14 07:27:00,78.8,52.4,30.02,SSE,151,3.0,9.0,40,0.00,,,0.00,Wunderground v.1.15,2013-05-13 18:27:00,
2013-05-14 07:37:00,79.4,53.0,30.03,SSE,150,4.0,5.0,40,0.00,,,0.00,Wunderground v.1.15,2013-05-13 18:37:00,
2013-05-14 07:42:00,79.3,53.6,30.02,SW,225,4.0,5.0,41,0.00,,,0.00,Wunderground v.1.15,2013-05-13 18:42:00,
2013-05-14 07:47:00,79.9,54.8,30.02,ENE,75,3.0,3.0,42,0.00,,,0.00,Wunderground v.1.15,2013-05-13 18:47:00,
2013-05-14 07:57:00,81.3,54.0,30.02,ESE,114,4.0,5.0,39,0.00,,,0.00,Wunderground v.1.15,2013-05-13 18:57:00,
2013-05-14 08:07:00,82.3,54.9,30.02,ESE,110,3.0,3.0,39,0.00,,,0.00,Wunderground v.1.15,2013-05-13 19:07:00,
2013-05-14 08:16:00,83.0,54.8,30.02,WSW,250,3.0,3.0,38,0.00,,,0.00,Wunderground v.1.15,2013-05-13 19:16:00,
2013-05-14 08:27:00,83.2,54.2,30.01,West,278,3.0,4.0,37,0.00,,,0.00,Wunderground v.1.15,2013-05-13 19:27:00,
2013-05-14 08:32:00,83.8,55.5,30.01,SW,219,3.0,7.0,38,0.00,,,0.00,Wunderground v.1.15,2013-05-13 19:32:00,
2013-05-14 08:41:00,83.7,54.7,30.01,South,173,3.0,3.0,37,0.00,,,0.00,Wunderground v.1.15,2013-05-13 19:41:00,
2013-05-14 08:46:00,83.9,54.8,30.01,WSW,248,3.0,5.0,37,0.00,,,0.00,Wunderground v.1.15,2013-05-13 19:46:00,
2013-05-14 08:57:00,84.5,55.4,30.00,SSW,193,3.0,3.0,37,0.00,,,0.00,Wunderground v.1.15,2013-05-13 19:57:00,
2013-05-14 09:02:00,85.0,54.3,30.00,South,183,2.0,5.0,35,0.00,,,0.00,Wunderground v.1.15,2013-05-13 20:02:00,
2013-05-14 09:12:00,86.7,55.8,29.99,ESE,122,3.0,4.0,35,0.00,,,0.00,Wunderground v.1.15,2013-05-13 20:12:00,
2013-05-14 09:21:00,86.2,54.5,29.99,South,181,4.0,5.0,34,0.00,,,0.00,Wunderground v.1.15,2013-05-13 20:21:00,
2013-05-14 09:27:00,86.3,53.8,29.99,SSW,193,5.0,5.0,33,0.00,,,0.00,Wunderground v.1.15,2013-05-13 20:27:00,
2013-05-14 09:32:00,86.6,53.2,29.99,WSW,255,3.0,5.0,32,0.00,,,0.00,Wunderground v.1.15,2013-05-13 20:32:00,
2013-05-14 09:41:00,87.0,53.6,29.99,WSW,247,3.0,3.0,32,0.00,,,0.00,Wunderground v.1.15,2013-05-13 20:41:00,
2013-05-14 09:46:00,86.7,52.4,29.98,WNW,283,3.0,3.0,31,0.00,,,0.00,Wunderground v.1.15,2013-05-13 20:46:00,
2013-05-14 09:52:00,86.9,52.6,29.98,West,274,3.0,3.0,31,0.00,,,0.00,Wunderground v.1.15,2013-05-13 20:52:00,
2013-05-14 10:02:00,87.7,53.3,29.98,SW,214,2.0,2.0,31,0.00,,,0.00,Wunderground v.1.15,2013-05-13 21:02:00,
2013-05-14 10:11:00,89.1,54.5,29.98,SW,221,2.0,2.0,31,0.00,,,0.00,Wunderground v.1.15,2013-05-13 21:11:00,
2013-05-14 10:16:00,89.0,52.6,29.98,SW,218,3.0,3.0,29,0.00,,,0.00,Wunderground v.1.15,2013-05-13 21:16:00,
2013-05-14 10:22:00,88.8,52.4,29.98,SSW,212,3.0,3.0,29,0.00,,,0.00,Wunderground v.1.15,2013-05-13 21:22:00,
2013-05-14 10:31:00,89.2,50.8,29.97,WSW,242,2.0,5.0,27,0.00,,,0.00,Wunderground v.1.15,2013-05-13 21:31:00,
2013-05-14 10:37:00,89.6,50.2,29.97,South,190,3.0,3.0,26,0.00,,,0.00,Wunderground v.1.15,2013-05-13 21:37:00,
2013-05-14 10:46:00,89.8,52.3,29.97,East,99,3.0,3.0,28,0.00,,,0.00,Wunderground v.1.15,2013-05-13 21:46:00,
2013-05-14 10:57:00,90.6,53.0,29.96,WSW,243,3.0,3.0,28,0.00,,,0.00,Wunderground v.1.15,2013-05-13 21:57:00,
2013-05-14 11:02:00,90.6,52.0,29.96,South,181,3.0,3.0,27,0.00,,,0.00,Wunderground v.1.15,2013-05-13 22:02:00,
2013-05-14 11:12:00,92.5,51.6,29.95,SSE,157,2.0,4.0,25,0.00,,,0.00,Wunderground v.1.15,2013-05-13 22:12:00,
2013-05-14 11:22:00,91.8,51.0,29.94,SE,128,3.0,5.0,25,0.00,,,0.00,Wunderground v.1.15,2013-05-13 22:22:00,
2013-05-14 11:32:00,92.7,50.6,29.94,SW,218,3.0,5.0,24,0.00,,,0.00,Wunderground v.1.15,2013-05-13 22:32:00,
2013-05-14 11:41:00,92.7,51.7,29.93,SSW,203,2.0,4.0,25,0.00,,,0.00,Wunderground v.1.15,2013-05-13 22:41:00,
2013-05-14 11:46:00,92.6,49.4,29.93,ESE,110,2.0,4.0,23,0.00,,,0.00,Wunderground v.1.15,2013-05-13 22:46:00,
2013-05-14 11:52:00,93.3,50.0,29.93,SSE,153,3.0,4.0,23,0.00,,,0.00,Wunderground v.1.15,2013-05-13 22:52:00,
2013-05-14 12:02:00,93.1,49.8,29.92,SSE,158,4.0,5.0,23,0.00,,,0.00,Wunderground v.1.15,2013-05-13 23:02:00,
2013-05-14 12:11:00,93.4,48.9,29.92,SSW,210,3.0,3.0,22,0.00,,,0.00,Wunderground v.1.15,2013-05-13 23:11:00,
2013-05-14 12:16:00,93.6,49.0,29.91,SW,222,3.0,3.0,22,0.00,,,0.00,Wunderground v.1.15,2013-05-13 23:16:00,
2013-05-14 12:22:00,93.9,50.5,29.91,South,183,2.0,3.0,23,0.00,,,0.00,Wunderground v.1.15,2013-05-13 23:22:00,
2013-05-14 12:32:00,93.4,50.1,29.91,SW,225,3.0,3.0,23,0.00,,,0.00,Wunderground v.1.15,2013-05-13 23:32:00,
2013-05-14 12:42:00,94.1,49.4,29.90,SSE,155,2.0,2.0,22,0.00,,,0.00,Wunderground v.1.15,2013-05-13 23:42:00,
2013-05-14 12:51:00,93.7,46.6,29.90,ESE,113,4.0,4.0,20,0.00,,,0.00,Wunderground v.1.15,2013-05-13 23:51:00,
2013-05-14 12:57:00,93.6,46.5,29.89,SSE,162,4.0,4.0,20,0.00,,,0.00,Wunderground v.1.15,2013-05-13 23:57:00,
2013-05-14 13:02:00,93.5,48.9,29.89,SW,226,4.0,4.0,22,0.00,,,0.00,Wunderground v.1.15,2013-05-14 00:02:00,
2013-05-14 13:12:00,93.2,47.5,29.89,SW,218,3.0,6.0,21,0.00,,,0.00,Wunderground v.1.15,2013-05-14 00:12:00,
2013-05-14 13:17:00,93.2,46.2,29.89,SSE,166,4.0,4.0,20,0.00,,,0.00,Wunderground v.1.15,2013-05-14 00:17:00,
2013-05-14 13:27:00,93.5,48.9,29.89,SSW,197,3.0,3.0,22,0.00,,,0.00,Wunderground v.1.15,2013-05-14 00:27:00,
2013-05-14 13:32:00,93.6,49.0,29.89,SSE,149,4.0,4.0,22,0.00,,,0.00,Wunderground v.1.15,2013-05-14 00:32:00,
2013-05-14 13:41:00,93.4,48.9,29.89,South,176,4.0,4.0,22,0.00,,,0.00,Wunderground v.1.15,2013-05-14 00:41:00,
2013-05-14 13:47:00,93.2,48.7,29.88,SSW,203,4.0,7.0,22,0.00,,,0.00,Wunderground v.1.15,2013-05-14 00:47:00,
2013-05-14 13:57:00,93.3,50.0,29.88,SSW,194,3.0,6.0,23,0.00,,,0.00,Wunderground v.1.15,2013-05-14 00:57:00,
2013-05-14 14:02:00,93.0,49.7,29.88,SSW,212,3.0,7.0,23,0.00,,,0.00,Wunderground v.1.15,2013-05-14 01:02:00,
2013-05-14 14:12:00,92.5,49.3,29.88,SW,221,4.0,5.0,23,0.00,,,0.00,Wunderground v.1.15,2013-05-14 01:12:00,
2013-05-14 14:17:00,92.2,49.1,29.87,SSW,198,4.0,4.0,23,0.00,,,0.00,Wunderground v.1.15,2013-05-14 01:17:00,
2013-05-14 14:26:00,91.9,47.6,29.87,SSE,163,4.0,4.0,22,0.00,,,0.00,Wunderground v.1.15,2013-05-14 01:26:00,
2013-05-14 14:31:00,91.9,48.8,29.87,South,177,4.0,4.0,23,0.00,,,0.00,Wunderground v.1.15,2013-05-14 01:31:00,
2013-05-14 14:37:00,91.6,48.6,29.87,South,181,4.0,4.0,23,0.00,,,0.00,Wunderground v.1.15,2013-05-14 01:37:00,
2013-05-14 14:47:00,91.3,49.4,29.87,South,174,4.0,4.0,24,0.00,,,0.00,Wunderground v.1.15,2013-05-14 01:47:00,
2013-05-14 14:56:00,90.8,50.1,29.87,WSW,245,4.0,5.0,25,0.00,,,0.00,Wunderground v.1.15,2013-05-14 01:56:00,
2013-05-14 15:01:00,90.3,51.8,29.87,SW,221,4.0,5.0,27,0.00,,,0.00,Wunderground v.1.15,2013-05-14 02:01:00,
2013-05-14 15:12:00,89.3,53.8,29.87,SW,222,5.0,6.0,30,0.00,,,0.00,Wunderground v.1.15,2013-05-14 02:12:00,
2013-05-14 15:22:00,89.4,53.0,29.87,WSW,248,3.0,4.0,29,0.00,,,0.00,Wunderground v.1.15,2013-05-14 02:22:00,
2013-05-14 15:31:00,88.6,55.0,29.87,South,180,3.0,3.0,32,0.00,,,0.00,Wunderground v.1.15,2013-05-14 02:31:00,
2013-05-14 15:42:00,87.8,55.1,29.87,SSE,150,3.0,3.0,33,0.00,,,0.00,Wunderground v.1.15,2013-05-14 02:42:00,
2013-05-14 15:52:00,86.3,54.6,29.87,SSE,157,2.0,3.0,34,0.00,,,0.00,Wunderground v.1.15,2013-05-14 02:52:00,
2013-05-14 16:02:00,84.7,54.8,29.87,SE,132,2.0,2.0,36,0.00,,,0.00,Wunderground v.1.15,2013-05-14 03:02:00,
2013-05-14 16:11:00,83.4,55.8,29.87,SSE,148,2.0,3.0,39,0.00,,,0.00,Wunderground v.1.15,2013-05-14 03:11:00,
2013-05-14 16:16:00,82.9,55.4,29.87,SSE,163,2.0,2.0,39,0.00,,,0.00,Wunderground v.1.15,2013-05-14 03:16:00,
2013-05-14 16:27:00,82.0,56.6,29.87,SSE,153,1.0,1.0,42,0.00,,,0.00,Wunderground v.1.15,2013-05-14 03:27:00,
2013-05-14 16:32:00,81.5,56.8,29.87,South,175,1.0,1.0,43,0.00,,,0.00,Wunderground v.1.15,2013-05-14 03:32:00,
2013-05-14 16:42:00,80.6,58.5,29.87,SSE,155,2.0,4.0,47,0.00,,,0.00,Wunderground v.1.15,2013-05-14 03:42:00,
2013-05-14 16:47:00,80.2,58.7,29.87,SSE,158,2.0,2.0,48,0.00,,,0.00,Wunderground v.1.15,2013-05-14 03:47:00,
2013-05-14 16:56:00,79.5,59.2,29.87,SSE,166,2.0,2.0,50,0.00,,,0.00,Wunderground v.1.15,2013-05-14 03:56:00,
2013-05-14 17:02:00,79.0,59.3,29.87,SE,143,3.0,3.0,51,0.00,,,0.00,Wunderground v.1.15,2013-05-14 04:02:00,
2013-05-14 17:12:00,78.3,59.8,29.88,ESE,117,2.0,4.0,53,0.00,,,0.00,Wunderground v.1.15,2013-05-14 04:12:00,
2013-05-14 17:17:00,78.0,59.5,29.87,SE,144,2.0,2.0,53,0.00,,,0.00,Wunderground v.1.15,2013-05-14 04:17:00,
2013-05-14 17:21:00,77.5,59.5,29.87,SE,124,1.0,2.0,54,0.00,,,0.00,Wunderground v.1.15,2013-05-14 04:21:00,
2013-05-14 17:26:00,77.0,59.1,29.88,SE,141,1.0,1.0,54,0.00,,,0.00,Wunderground v.1.15,2013-05-14 04:26:00,
2013-05-14 17:31:00,76.7,59.3,29.88,SE,136,1.0,2.0,55,0.00,,,0.00,Wunderground v.1.15,2013-05-14 04:31:00,
2013-05-14 17:42:00,76.0,59.2,29.88,SE,142,1.0,2.0,56,0.00,,,0.00,Wunderground v.1.15,2013-05-14 04:42:00,
2013-05-14 17:47:00,75.7,58.9,29.88,SE,136,1.0,1.0,56,0.00,,,0.00,Wunderground v.1.15,2013-05-14 04:47:00,
2013-05-14 17:57:00,74.9,58.6,29.89,SE,144,1.0,1.0,57,0.00,,,0.00,Wunderground v.1.15,2013-05-14 04:57:00,
2013-05-14 18:06:00,74.3,58.1,29.88,East,87,2.0,2.0,57,0.00,,,0.00,Wunderground v.1.15,2013-05-14 05:06:00,
2013-05-14 18:12:00,74.0,57.8,29.88,SSE,150,2.0,2.0,57,0.00,,,0.00,Wunderground v.1.15,2013-05-14 05:12:00,
2013-05-14 18:21:00,73.4,57.7,29.88,SE,145,2.0,3.0,58,0.00,,,0.00,Wunderground v.1.15,2013-05-14 05:21:00,
2013-05-14 18:31:00,73.0,57.8,29.88,SE,124,1.0,2.0,59,0.00,,,0.00,Wunderground v.1.15,2013-05-14 05:31:00,
2013-05-14 18:37:00,72.8,57.6,29.88,SE,136,1.0,1.0,59,0.00,,,0.00,Wunderground v.1.15,2013-05-14 05:37:00,
2013-05-14 18:46:00,72.4,57.7,29.89,SE,145,2.0,3.0,60,0.00,,,0.00,Wunderground v.1.15,2013-05-14 05:46:00,
2013-05-14 18:52:00,72.3,57.6,29.88,SSE,149,2.0,3.0,60,0.00,,,0.00,Wunderground v.1.15,2013-05-14 05:52:00,
2013-05-14 19:02:00,71.8,57.6,29.88,SE,144,2.0,2.0,61,0.00,,,0.00,Wunderground v.1.15,2013-05-14 06:02:00,
2013-05-14 19:11:00,71.3,57.6,29.88,ESE,113,2.0,3.0,62,0.00,,,0.00,Wunderground v.1.15,2013-05-14 06:11:00,
2013-05-14 19:22:00,70.8,57.6,29.88,SE,124,2.0,3.0,63,0.00,,,0.00,Wunderground v.1.15,2013-05-14 06:22:00,
2013-05-14 19:31:00,70.4,57.2,29.88,SE,132,4.0,4.0,63,0.00,,,0.00,Wunderground v.1.15,2013-05-14 06:31:00,
2013-05-14 19:37:00,70.2,57.0,29.87,ESE,118,4.0,4.0,63,0.00,,,0.00,Wunderground v.1.15,2013-05-14 06:37:00,
2013-05-14 19:46:00,69.8,57.1,29.87,SE,131,4.0,5.0,64,0.00,,,0.00,Wunderground v.1.15,2013-05-14 06:46:00,
2013-05-14 19:57:00,69.4,57.1,29.87,SE,136,2.0,4.0,65,0.00,,,0.00,Wunderground v.1.15,2013-05-14 06:57:00,
2013-05-14 20:07:00,69.1,57.3,29.88,ESE,122,3.0,3.0,66,0.00,,,0.00,Wunderground v.1.15,2013-05-14 07:07:00,
2013-05-14 20:16:00,68.7,56.9,29.88,SE,144,3.0,3.0,66,0.00,,,0.00,Wunderground v.1.15,2013-05-14 07:16:00,
2013-05-14 20:22:00,68.5,56.7,29.88,SE,140,3.0,4.0,66,0.00,,,0.00,Wunderground v.1.15,2013-05-14 07:22:00,
2013-05-14 20:31:00,67.9,56.1,29.88,SSE,152,3.0,4.0,66,0.00,,,0.00,Wunderground v.1.15,2013-05-14 07:31:00,
2013-05-14 20:37:00,67.8,56.4,29.87,SSE,167,3.0,3.0,67,0.00,,,0.00,Wunderground v.1.15,2013-05-14 07:37:00,
2013-05-14 20:47:00,67.4,56.1,29.87,ESE,120,2.0,3.0,67,0.00,,,0.00,Wunderground v.1.15,2013-05-14 07:47:00,
2013-05-14 20:57:00,67.1,55.8,29.87,SE,146,2.0,2.0,67,0.00,,,0.00,Wunderground v.1.15,2013-05-14 07:57:00,
2013-05-14 21:02:00,66.8,55.9,29.88,SE,144,2.0,2.0,68,0.00,,,0.00,Wunderground v.1.15,2013-05-14 08:02:00,
2013-05-14 21:12:00,66.5,55.6,29.88,ESE,113,1.0,2.0,68,0.00,,,0.00,Wunderground v.1.15,2013-05-14 08:12:00,
2013-05-14 21:22:00,66.1,55.6,29.88,East,79,1.0,2.0,69,0.00,,,0.00,Wunderground v.1.15,2013-05-14 08:22:00,
2013-05-14 21:31:00,66.0,55.5,29.88,ESE,103,2.0,2.0,69,0.00,,,0.00,Wunderground v.1.15,2013-05-14 08:31:00,
2013-05-14 21:42:00,65.6,55.5,29.87,East,101,2.0,2.0,70,0.00,,,0.00,Wunderground v.1.15,2013-05-14 08:42:00,
2013-05-14 21:47:00,65.4,55.4,29.87,East,79,2.0,3.0,70,0.00,,,0.00,Wunderground v.1.15,2013-05-14 08:47:00,
2013-05-14 22:01:00,64.9,55.3,29.87,East,79,2.0,2.0,71,0.00,,,0.00,Wunderground v.1.15,2013-05-14 09:01:00,
2013-05-14 22:07:00,64.7,55.5,29.87,ENE,74,2.0,2.0,72,0.00,,,0.00,Wunderground v.1.15,2013-05-14 09:07:00,
2013-05-14 22:16:00,64.5,55.3,29.87,ENE,77,2.0,2.0,72,0.00,,,0.00,Wunderground v.1.15,2013-05-14 09:16:00,
2013-05-14 22:22:00,64.2,55.0,29.86,East,95,2.0,4.0,72,0.00,,,0.00,Wunderground v.1.15,2013-05-14 09:22:00,
2013-05-14 22:31:00,64.0,54.8,29.87,ENE,75,3.0,3.0,72,0.00,,,0.00,Wunderground v.1.15,2013-05-14 09:31:00,
2013-05-14 22:37:00,64.0,54.8,29.87,East,82,3.0,3.0,72,0.00,,,0.00,Wunderground v.1.15,2013-05-14 09:37:00,
2013-05-14 22:46:00,63.9,54.7,29.87,ENE,67,3.0,3.0,72,0.00,,,0.00,Wunderground v.1.15,2013-05-14 09:46:00,
2013-05-14 22:57:00,63.7,54.5,29.87,ENE,73,2.0,2.0,72,0.00,,,0.00,Wunderground v.1.15,2013-05-14 09:57:00,
2013-05-14 23:02:00,63.5,54.7,29.86,ESE,108,1.0,2.0,73,0.00,,,0.00,Wunderground v.1.15,2013-05-14 10:02:00,
2013-05-14 23:11:00,63.3,54.5,29.86,SE,124,2.0,2.0,73,0.00,,,0.00,Wunderground v.1.15,2013-05-14 10:11:00,
2013-05-14 23:22:00,63.1,54.3,29.86,ESE,108,1.0,2.0,73,0.00,,,0.00,Wunderground v.1.15,2013-05-14 10:22:00,
2013-05-14 23:31:00,62.8,54.4,29.85,ESE,115,2.0,2.0,74,0.00,,,0.00,Wunderground v.1.15,2013-05-14 10:31:00,
2013-05-14 23:42:00,62.7,54.3,29.85,SE,136,2.0,4.0,74,0.00,,,0.00,Wunderground v.1.15,2013-05-14 10:42:00,
2013-05-14 23:51:00,62.6,54.2,29.84,SE,136,2.0,3.0,74,0.00,,,0.00,Wunderground v.1.15,2013-05-14 10:51:00,
2013-05-14 23:57:00,62.5,54.1,29.84,SE,134,2.0,3.0,74,0.00,,,0.00,Wunderground v.1.15,2013-05-14 10:57:00,